Location: Standeford and Andreas Observatories
(44.1397°N, 93.9969°W)
Time: 09:03:07
(UTC-05:00)

Cosmos 1500 Rocket - Visible Passes

Search period start: 25 June 2016 00:00
Search period end: 05 July 2016 00:00
Orbit: 604 x 631 km, 82.5° (Epoch: 24 June)

Date Brightness Start Highest point End Pass type
(mag) Time Alt. Az. Time Alt. Az. Time Alt. Az.
25 Jun 3.7 21:58:01 10° SSW 22:02:22 76° W 22:06:48 10° N visible
26 Jun 4.9 22:15:16 10° SSW 22:19:24 41° WNW 22:23:36 10° N visible
27 Jun 5.9 22:33:00 10° SW 22:36:33 24° WNW 22:40:08 10° NNW visible
28 Jun 6.5 22:51:29 10° W 22:53:47 14° WNW 22:56:07 10° NW visible
30 Jun 5.0 21:45:22 10° SSW 21:49:30 41° WNW 21:53:43 10° N visible
01 Jul 6.1 22:03:06 10° SW 22:06:39 23° WNW 22:10:14 10° NNW visible
02 Jul 6.6 22:21:36 10° W 22:23:53 14° WNW 22:26:12 10° NW visible
